CAPE
0 0 0 0 0 0 0 0 0 0 0 0 0 0 0 0 0 0 0 0 1 0 6 25 1 0 9 32 13 3 4 4 3 0 1 2 3 4
1 5 1 0 0 0 0 0 0 0 0 0 0 0 0 0 0 0 0 0 0 0 10 14 17 13 7 13 0 0 0 0 0 1 3 4 6 6
13 12 1 0 2 1 2 1 2 1 2 0 0 0 0 0 0 0 0 0 0 4 11 19 5 1 0 1 0 0 0 0 1 2 4 6 5 4
0 10 0 6 2 2 1 1 2 2 2 1 0 0 0 0 0 0 0 0 0 0 0 0 0 0 0 1 1 1 2 2 0 2 3 1 1 2
0 0 0 15 0 1 1 2 2 1 2 2 0 0 0 0 0 0 0 0 0 0 0 2 2 2 2 2 3 2 2 2 0 0 0 0 0 0
15 15 2 4 1 3 2 18 3 2 1 0 0 0 0 0 0 0 0 0 0 0 0 0 1 0 0 0 0 1 0 0 0 1 0 0 0 0
28 9 0 1 0 0 0 0 0 0 0 0 0 0 0 0 0 0 0 0 0 0 0 0 0 0 0 0 0 0 0 0 0 1 0 0 0 0
0 0 0 0 0 0 0 0 0 0 0 0 0 0 0 0 0 0 0 0 0 0 0 0 0 0 0 0 0 2 2 0 0 0 0 0 0 0
3 2 1 1 0 0 0 0 0 0 0 0 0 0 1 1 1 0 0 0 0 0 0 0 0 0 0 0 0 2 4 1 0 0 0 0 0 0
2 2 1 1 0 0 0 0 1 1 1 0 0 0 0 0 1 1 0 0 0 0 0 0 0 0 0 0 0 2 2 4 1 0 0 0 1 0
3 2 1 1 0 0 0 0 0 1 0 0 0 0 0 1 1 0 0 0 0 0 0 0 0 0 0 0 0 1 2 2 0 1 1 2 1 1
1 2 2 1 0 0 0 0 0 1 2 0 0 0 0 0 0 0 1 0 1 0 0 0 0 0 0 0 0 0 0 1 2 3 0 1 2 2
0 0 0 0 0 1 0 0 0 0 0 0 0 0 0 0 0 0 0 0 0 0 0 0 0 0 0 0 0 0 0 0 0 0 1 1 1 2
0 0 0 0 0 0 0 0 0 0 0 0 0 0 0 0 0 0 0 0 0 0 0 1 0 0 0 0 0 0 0 0 0 0 0 0 0 0
0 0 0 0 0 0 0 0 0 0 0 0 0 0 0 1 0 0 0 0 0 0 0 0 0 0 0 0 0 0 0 0 0 0 0 0 0 0
0 0 0 0 0 0 0 0 0 0 0 0 0 0 0 0 0 0 0 0 0 0 0 0 0 0 0 1 0 0 0 0 0 0 1 1 1 0
0 0 0 0 0 0 0 0 0 0 0 0 0 0 0 0 0 1 1 0 0 0 0 0 0 0 0 1 1 0 0 0 0 0 1 1 0 0
0 0 0 0 0 0 0 0 0 0 0 0 0 0 0 0 0 0 0 0 1 0 0 0 0 0 0 0 0 1 0 0 0 0 1 1 0 0
0 0 0 0 0 0 0 0 0 0 0 0 0 0 0 0 0 0 0 0 2 2 0 0 0 0 0 0 0 2 0 0 0 0 1 2 1 1
0 0 0 0 0 0 0 0 0 0 0 0 0 0 0 0 0 0 0 1 1 0 0 0 0 0 0 0 0 0 0 0 0 0 1 0 0 1
0 0 0 0 0 0 0 0 0 0 0 0 0 0 0 0 0 0 0 1 1 0 0 2 2 1 0 0 1 1 0 1 0 0 0 2 3 0
0 0 0 0 0 0 0 0 0 0 0 0 0 0 1 3 2 0 0 0 0 0 0 0 0 0 0 0 2 1 0 0 0 0 0 0 0 0
0 0 0 0 0 0 0 0 0 0 0 0 0 0 0 0 0 3 0 3 3 0 0 1 1 0 0 1 1 0 0 0 0 0 0 1 0 0
CIN
0 0 0 0 0 0 0 0 0 0 0 0 0 0 0 0 0 0 0 0 -62 0 -76 -67 -29 0 -30 -28 -29 -61 -65 -44 -41 -20 0 0 0 0
0 -33 0 0 0 0 0 0 0 0 0 0 0 0 0 0 0 0 0 0 0 0 -58 -55 -40 -28 -31 -22 -11 -26 -53 0 0 0 0 0 0 0
-28 -32 0 0 0 0 0 0 0 0 0 0 0 0 0 0 0 0 0 0 -13 -46 -40 -31 -33 -35 0 -10 0 0 0 0 0 0 0 0 0 0
0 -26 0 -43 -23 -16 0 0 0 0 0 0 0 0 0 0 0 0 0 0 0 0 0 0 0 0 0 0 0 0 0 0 0 0 0 0 0 0
0 0 0 -104 0 0 -9 -2 0 -15 -17 0 0 0 0 0 0 0 0 0 0 0 0 0 0 0 0 0 0 0 0 0 0 0 0 0 0 0
-10 -61 -28 -107 0 -10 -18 -44 -9 -47 0 0 0 0 0 0 0 0 0 0 0 0 0 0 0 0 0 0 0 0 0 -1 0 0 0 0 0 0
-30 -6 -2 -46 0 -2 0 0 0 0 -19 0 0 0 0 0 0 0 0 0 0 0 0 0 0 0 0 0 0 0 0 0 0 0 0 0 0 0
0 0 0 0 0 0 0 0 0 0 0 0 0 0 0 0 0 0 0 0 0 0 0 0 0 0 0 0 0 0 0 -3 0 0 0 0 0 0
0 0 0 0 0 0 0 0 0 0 0 0 0 0 0 0 0 0 0 0 0 0 0 0 0 0 0 0 0 0 0 0 0 0 0 0 0 0
0 0 0 0 0 0 0 0 0 0 0 0 0 0 0 0 0 0 0 0 0 0 0 0 0 0 0 0 0 0 0 0 0 0 0 0 0 0
0 0 0 0 0 0 0 0 0 0 0 0 0 0 0 0 0 0 0 0 0 0 0 0 0 0 0 0 0 0 0 0 0 0 0 0 0 0
0 0 0 0 0 0 0 0 0 0 0 0 0 0 0 0 0 0 0 0 0 0 0 0 0 0 0 0 0 0 0 0 0 0 0 0 0 0
0 0 0 0 0 0 0 0 0 0 0 0 0 0 0 0 0 0 0 0 0 0 0 0 0 0 0 0 0 0 0 0 0 0 0 0 0 0
0 0 0 0 0 0 0 0 0 0 0 0 0 0 0 0 0 0 0 0 0 0 0 0 0 0 0 0 0 0 0 0 0 0 0 0 0 0
0 0 0 0 0 0 0 0 0 0 0 0 0 0 0 0 0 0 0 0 0 0 0 0 0 0 0 0 0 0 0 0 0 0 0 0 0 0
0 0 0 0 0 0 0 0 0 0 0 0 0 0 0 0 0 0 0 0 0 0 0 0 0 0 0 0 0 0 0 0 0 0 0 0 0 0
0 0 0 0 0 0 0 0 0 0 0 0 0 0 -1 0 0 0 0 0 0 0 0 0 0 0 0 0 0 0 0 0 0 0 0 0 0 0
0 0 0 0 0 0 0 0 0 0 0 0 0 0 0 0 0 -1 -1 -1 0 -2 0 0 0 0 0 0 0 0 0 0 0 0 0 0 0 0
0 0 0 0 0 0 0 0 0 0 0 0 0 0 0 0 0 0 0 0 -1 -1 0 0 0 0 0 0 0 0 0 0 0 0 0 0 0 0
0 0 0 0 0 0 0 0 0 0 0 0 0 0 0 -2 0 -1 -2 -2 -4 -1 0 -1 0 0 0 0 0 0 0 0 0 0 0 0 0 0
0 0 0 0 0 0 0 -1 -2 -2 0 0 0 -1 -1 -2 -3 -2 -4 -1 -1 -1 0 -1 -2 -1 0 0 0 0 0 0 0 0 0 0 0 0
0 0 0 0 0 0 0 0 0 0 0 0 -1 -1 -6 -2 -3 -2 -5 -3 -4 0 0 -7 -3 0 0 0 0 0 0 0 0 0 0 0 0 0
0 0 0 0 0 0 0 0 0 0 0 0 -1 0 0 -1 -6 -3 0 -2 -2 -4 -3 -2 -2 0 0 0 0 0 0 0 0 0 0 0 0 0
Wind_Speed
46 44 46 39 40 40 40 40 36 37 36 33 33 27 26 24 21 20 19 18 17 17 18 20 21 26 30 29 29 28 26 26 27 25 24 25 26 28
42 43 50 39 41 45 43 38 41 45 42 33 35 33 29 24 18 17 17 20 19 18 19 21 25 30 34 34 29 27 27 27 25 24 23 24 22 24
44 36 44 40 39 42 40 43 42 38 40 39 34 29 22 19 20 21 17 18 19 16 21 22 27 32 34 32 29 30 28 23 21 18 17 18 21 23
46 41 35 33 38 37 33 33 37 37 36 40 33 25 27 23 19 21 22 23 21 22 23 22 23 28 30 31 30 29 28 18 16 17 17 20 23 27
41 43 43 30 36 37 36 33 38 34 31 28 33 26 23 23 20 21 21 22 22 24 26 24 27 30 30 31 30 30 22 18 16 17 18 22 24 27
38 39 40 35 30 41 32 32 32 27 24 22 20 23 22 23 22 21 22 22 23 24 26 26 24 26 30 31 32 32 28 18 16 17 20 22 24 26
34 33 31 26 19 21 19 21 13 13 16 19 21 19 24 24 21 18 20 20 24 26 26 26 27 27 29 29 30 29 24 15 15 17 20 23 26 28
24 19 15 12 13 10 12 14 20 20 16 21 18 19 21 21 18 18 19 21 28 22 25 27 26 30 27 26 26 24 19 16 16 19 21 23 26 28
9 12 11 13 11 11 13 11 13 13 14 14 15 15 15 15 16 19 23 24 23 25 25 30 24 29 28 25 23 21 19 18 17 19 21 23 26 27
4 6 6 8 6 7 9 10 11 12 14 14 13 14 15 18 21 21 22 23 24 25 25 28 27 29 30 27 24 22 21 19 18 19 21 23 27 29
7 6 7 7 10 10 8 10 11 14 14 15 16 17 18 18 20 21 23 26 28 27 23 27 27 29 28 28 26 24 22 21 21 22 22 24 28 30
8 10 11 11 11 11 11 12 14 17 17 17 19 19 21 22 23 23 25 27 29 31 26 24 27 27 31 27 28 24 23 22 23 22 22 25 27 27
10 12 12 12 12 13 14 15 16 16 18 18 20 21 21 23 24 25 25 25 27 27 26 26 28 28 28 30 29 28 24 23 23 23 22 24 25 24
13 14 14 14 14 15 16 17 18 18 19 21 22 24 24 25 27 27 27 26 26 28 29 27 30 28 30 32 33 29 27 25 23 22 21 24 23 21
14 14 14 15 15 16 17 18 19 20 21 22 24 25 27 28 29 29 29 28 29 29 29 29 30 31 31 33 34 31 31 27 23 22 22 22 21 18
15 15 16 16 17 18 19 20 21 22 23 25 26 27 28 30 31 31 31 32 32 32 30 29 29 30 33 32 31 32 29 29 24 22 21 21 18 14
15 17 19 20 22 23 24 25 25 25 26 27 29 30 31 31 32 31 32 33 34 35 34 32 30 30 30 30 33 31 30 27 24 22 20 19 15 13
19 21 22 23 24 25 25 26 26 26 27 29 30 31 32 33 34 34 34 35 37 36 36 33 31 32 31 29 24 28 26 26 22 19 18 18 16 16
22 23 24 25 26 27 27 27 28 29 30 30 32 33 34 36 37 37 36 35 34 33 31 30 30 31 33 34 29 20 25 22 20 19 17 16 16 19
21 22 23 24 24 24 25 27 29 30 31 33 34 35 36 36 37 37 36 36 36 35 34 31 29 29 31 33 31 27 21 21 20 20 18 15 17 22
22 23 24 25 25 26 27 29 31 33 34 35 37 37 37 37 37 37 36 37 38 36 36 34 30 27 27 27 30 28 26 19 18 18 16 14 16 25
24 25 27 27 28 30 32 34 35 36 37 37 38 39 39 38 39 39 38 38 38 38 37 35 32 30 28 27 28 28 25 21 16 15 14 16 18 28
25 26 28 29 30 33 35 37 38 39 40 40 39 40 40 40 39 38 38 37 38 38 36 36 32 28 27 26 25 24 22 20 16 14 15 19 24 23
Wind_Direction
257 257 259 265 263 263 266 270 271 275 279 282 282 285 282 282 276 279 286 288 291 291 296 299 297 300 300 299 306 311 313 317 318 317 318 320 321 322
262 260 258 266 262 260 268 272 271 278 277 283 282 283 284 281 275 276 285 293 294 295 294 294 298 298 298 294 303 309 311 315 318 316 316 318 322 325
255 263 262 260 264 263 267 271 270 274 276 281 279 279 281 275 281 282 287 293 298 291 296 293 297 296 295 298 303 307 309 314 314 311 314 318 322 325
258 260 262 261 267 268 267 273 271 274 279 274 277 276 279 282 277 285 292 297 299 304 303 302 301 298 299 302 304 305 309 301 299 307 312 318 321 322
258 257 261 258 267 266 269 274 274 279 273 276 275 281 280 283 289 295 297 301 305 306 306 306 304 304 305 304 306 307 308 305 305 308 312 316 319 320
258 256 260 266 269 262 274 276 271 276 275 276 285 285 284 290 299 296 298 304 307 305 303 306 310 310 307 306 307 307 312 310 309 312 314 317 319 320
261 256 260 265 271 271 273 279 272 285 280 286 292 292 290 298 300 305 303 308 306 304 306 309 308 308 309 309 311 314 319 316 315 316 318 318 318 319
260 258 248 249 277 295 288 284 283 282 294 292 295 296 296 299 302 307 309 308 299 312 308 306 309 306 313 318 321 323 326 323 320 319 319 320 320 320
263 261 260 279 298 286 294 315 329 327 320 311 304 306 305 307 308 307 305 305 306 304 306 300 312 310 316 322 326 327 328 325 322 321 321 321 321 322
342 292 298 306 328 317 322 328 333 333 325 329 322 318 314 309 306 306 306 305 305 304 307 305 312 311 316 321 324 325 326 326 324 322 321 321 322 322
348 353 1 320 318 324 323 326 323 318 333 322 318 319 319 317 314 309 304 301 301 305 308 308 311 313 317 319 320 321 322 322 322 320 321 322 321 321
348 344 348 332 338 333 325 318 314 311 316 319 315 314 311 308 310 309 305 303 304 305 310 309 314 316 316 319 318 319 321 320 321 319 320 322 323 323
343 327 331 342 347 336 328 323 322 320 317 316 313 312 312 312 311 311 312 309 307 306 312 313 313 313 312 314 316 317 315 316 317 317 320 322 322 324
344 342 340 339 333 331 329 323 319 318 317 316 315 312 312 313 313 313 313 313 312 310 310 310 310 309 310 311 311 316 316 316 315 313 316 323 322 322
354 348 343 338 334 333 330 327 324 322 320 318 316 314 314 314 315 315 315 315 314 313 312 311 308 307 306 306 309 312 314 317 313 312 314 318 320 322
346 343 339 338 335 332 327 326 324 323 321 318 316 316 317 316 315 316 314 314 314 313 315 313 311 310 307 306 305 306 309 310 317 313 312 315 318 318
341 336 331 328 325 323 322 322 322 321 319 319 316 315 316 316 315 317 316 315 312 312 313 314 313 311 308 307 305 304 303 304 304 309 309 309 311 308
331 327 325 324 323 323 322 321 322 320 320 319 317 317 316 315 315 315 314 312 310 311 311 314 314 313 313 309 302 303 304 304 302 301 302 301 301 291
326 323 322 322 321 320 319 319 318 317 317 316 315 315 314 312 311 312 313 313 313 313 314 315 314 312 309 307 312 303 302 301 301 297 295 291 293 282
330 328 327 327 326 324 324 322 321 320 318 316 314 314 313 313 313 313 314 313 312 312 312 313 311 309 307 307 307 308 303 297 293 291 290 291 283 271
328 327 326 326 326 325 323 321 319 318 317 315 314 313 313 312 311 312 311 310 309 310 309 309 310 310 308 309 304 302 304 293 291 284 285 279 274 264
323 323 323 323 323 322 320 319 317 317 316 315 313 312 311 310 309 309 309 307 307 307 307 307 308 308 305 301 300 300 300 298 290 286 276 271 270 257
322 322 322 323 322 321 320 317 316 315 314 314 313 312 311 309 307 306 306 305 305 305 306 306 305 303 301 299 298 297 294 291 285 278 273 264 261 263